GW1405 Weather Reports


time (UTC)temp
C
wind
direction
speed
KPH
gust
KPH
rain 1hr
cm
rain 24hr
cm
rain mn
cm
humidity
%
barometer
mb
20260507161539 15 131 0.0 0.0 0.00 0.00 0.00 79
20260507161035 15 45 3.2 4.8 0.00 0.00 0.00 79
20260507160531 15 126 0.0 0.0 0.00 0.00 0.00 80
20260507160027 15 153 0.0 0.0 0.00 0.00 0.00 81
20260507155522 15 131 0.0 0.0 0.00 0.00 0.00 81
20260507155020 15 133 0.0 0.0 0.00 0.00 0.00 81
20260507154517 15 272 1.6 1.6 0.00 0.00 0.00 82
20260507154014 15 114 0.0 0.0 0.00 0.00 0.00 82
20260507153511 15 132 0.0 0.0 0.00 0.00 0.00 83
20260507153007 14 151 0.0 0.0 0.00 0.00 0.00 83
20260507152502 14 128 0.0 0.0 0.00 0.00 0.00 84
20260507151959 14 126 0.0 0.0 0.00 0.00 0.00 85
20260507151455 13 130 0.0 0.0 0.00 0.00 0.00 86
20260507150952 13 132 0.0 0.0 0.00 0.00 0.00 87
20260507150449 13 132 0.0 0.0 0.00 0.00 0.00 87
20260507145945 13 134 0.0 0.0 0.00 0.00 0.00 88
20260507145441 13 123 0.0 0.0 0.00 0.00 0.00 88
20260507144938 13 146 3.2 4.8 0.00 0.00 0.00 88
20260507144435 13 126 0.0 0.0 0.00 0.00 0.00 89
20260507143932 13 129 0.0 0.0 0.00 0.00 0.00 89
20260507143430 13 130 0.0 0.0 0.00 0.00 0.00 89
20260507142926 13 132 0.0 0.0 0.00 0.00 0.00 89
20260507142422 13 116 0.0 0.0 0.00 0.00 0.00 89
20260507141920 13 132 0.0 0.0 0.00 0.00 0.00 89
20260507141415 13 136 0.0 0.0 0.00 0.00 0.00 89
20260507140912 13 136 0.0 0.0 0.00 0.00 0.00 89
20260507140409 13 132 0.0 0.0 0.00 0.00 0.00 89
20260507135907 13 129 0.0 0.0 0.00 0.00 0.00 89
20260507135403 13 131 0.0 0.0 0.00 0.00 0.00 89
20260507134901 12 136 0.0 0.0 0.00 0.00 0.00 89
20260507134357 12 139 0.0 0.0 0.00 0.00 0.00 89
20260507133853 12 127 0.0 0.0 0.00 0.00 0.00 89
20260507133348 12 133 0.0 0.0 0.00 0.00 0.00 89
20260507132848 12 127 0.0 0.0 0.00 0.00 0.00 89
20260507132343 12 127 0.0 0.0 0.00 0.00 0.00 89
20260507131841 12 131 0.0 0.0 0.00 0.00 0.00 89
20260507131337 12 128 0.0 0.0 0.00 0.00 0.00 89
20260507130834 12 139 0.0 0.0 0.00 0.00 0.00 89
20260507130331 12 127 0.0 0.0 0.00 0.00 0.00 89
20260507125830 12 136 0.0 0.0 0.00 0.00 0.00 89
20260507125327 12 131 1.6 1.6 0.00 0.00 0.00 89
20260507124824 12 124 1.6 3.2 0.00 0.00 0.00 89
20260507124321 12 142 1.6 1.6 0.00 0.00 0.00 89
20260507123819 12 129 1.6 1.6 0.00 0.00 0.00 88
20260507123316 12 134 3.2 3.2 0.00 0.00 0.00 88
20260507122812 11 123 1.6 3.2 0.00 0.00 0.00 88
20260507122308 11 121 3.2 3.2 0.00 0.00 0.00 88
20260507121804 11 127 0.0 1.6 0.00 0.00 0.00 88
20260507121300 11 125 1.6 3.2 0.00 0.00 0.00 88
20260507120756 11 137 1.6 3.2 0.00 0.00 0.00 88
20260507120253 11 126 3.2 3.2 0.00 0.00 0.00 88
20260507115749 11 132 1.6 3.2 0.00 0.00 0.00 88
20260507115245 11 139 4.8 4.8 0.00 0.00 0.00 88
20260507114741 11 126 3.2 3.2 0.00 0.00 0.00 88
20260507114238 11 132 1.6 3.2 0.00 0.00 0.00 88
20260507113736 11 115 1.6 3.2 0.00 0.00 0.00 88
20260507113232 11 143 1.6 1.6 0.00 0.00 0.00 88
20260507112731 11 140 3.2 3.2 0.00 0.00 0.00 88
20260507112227 11 161 4.8 4.8 0.00 0.00 0.00 88
20260507111725 11 130 3.2 3.2 0.00 0.00 0.00 87
20260507111221 11 129 3.2 3.2 0.00 0.00 0.00 87
20260507110717 11 115 1.6 3.2 0.00 0.00 0.00 87
20260507110214 11 139 1.6 3.2 0.00 0.00 0.00 87
20260507105711 11 131 3.2 3.2 0.00 0.00 0.00 87
20260507105206 12 134 0.0 1.6 0.00 0.00 0.00 87
20260507104704 12 125 1.6 3.2 0.00 0.00 0.00 87
20260507104201 12 137 1.6 3.2 0.00 0.00 0.00 87
20260507103656 12 128 1.6 3.2 0.00 0.00 0.00 87
20260507103153 12 134 0.0 1.6 0.00 0.00 0.00 87
20260507102649 12 128 1.6 1.6 0.00 0.00 0.00 87
20260507102146 11 124 0.0 0.0 0.00 0.00 0.00 87
20260507101642 11 128 1.6 1.6 0.00 0.00 0.00 87
20260507101138 11 134 3.2 3.2 0.00 0.00 0.00 87
20260507100635 11 158 3.2 3.2 0.00 0.00 0.00 86
20260507100134 11 122 3.2 3.2 0.00 0.00 0.00 86
20260507095631 11 133 3.2 3.2 0.00 0.00 0.00 86
20260507095127 11 125 1.6 1.6 0.00 0.00 0.00 86
20260507094624 11 120 1.6 3.2 0.00 0.00 0.00 86
20260507094121 12 126 3.2 3.2 0.00 0.00 0.00 85
20260507093618 12 123 1.6 1.6 0.00 0.00 0.00 85
20260507093117 12 126 1.6 1.6 0.00 0.00 0.00 85
20260507092613 12 134 3.2 4.8 0.00 0.00 0.00 85
20260507092109 12 119 1.6 3.2 0.00 0.00 0.00 85
20260507091606 12 132 1.6 1.6 0.00 0.00 0.00 85
20260507091102 12 135 1.6 1.6 0.00 0.00 0.00 85
20260507090558 12 124 1.6 1.6 0.00 0.00 0.00 85
20260507090055 12 133 0.0 1.6 0.00 0.00 0.00 85
20260507085552 12 145 3.2 4.8 0.00 0.00 0.00 85
20260507085049 12 143 1.6 1.6 0.00 0.00 0.00 85
20260507084546 12 143 3.2 3.2 0.00 0.00 0.00 85
20260507084043 12 134 1.6 1.6 0.00 0.00 0.00 85
20260507083539 12 135 3.2 3.2 0.00 0.00 0.00 85
20260507083036 12 130 4.8 4.8 0.00 0.00 0.00 85
20260507082532 12 127 1.6 1.6 0.00 0.00 0.00 85
20260507082029 12 126 1.6 1.6 0.00 0.00 0.00 84
20260507081525 12 119 1.6 3.2 0.00 0.00 0.00 84
20260507081022 12 114 3.2 3.2 0.00 0.00 0.00 84
20260507080518 12 143 4.8 4.8 0.00 0.00 0.00 84
20260507080015 12 128 3.2 4.8 0.00 0.00 0.00 83
20260507075510 12 148 3.2 3.2 0.00 0.00 0.00 83
20260507075007 12 138 3.2 3.2 0.00 0.00 0.00 83
20260507074503 12 127 3.2 3.2 0.00 0.00 0.00 83
20260507074002 12 132 3.2 3.2 0.00 0.00 0.00 82
20260507073457 12 126 3.2 3.2 0.00 0.00 0.00 82
20260507072954 12 134 1.6 1.6 0.00 0.00 0.00 82
20260507072452 12 136 1.6 1.6 0.00 0.00 0.00 82
20260507071949 12 144 3.2 3.2 0.00 0.00 0.00 82
20260507071446 12 129 1.6 1.6 0.00 0.00 0.00 83
20260507070942 12 134 3.2 3.2 0.00 0.00 0.00 83
20260507070440 12 133 3.2 4.8 0.00 0.00 0.00 83
20260507065936 12 144 3.2 3.2 0.00 0.00 0.00 83
20260507065433 12 119 4.8 4.8 0.00 0.00 0.00 83
20260507064930 12 123 3.2 3.2 0.00 0.00 0.00 82
20260507064429 12 133 6.4 6.4 0.00 0.00 0.00 82
20260507063926 12 130 3.2 4.8 0.00 0.00 0.00 82
20260507063422 12 147 1.6 1.6 0.00 0.00 0.00 81
20260507062920 12 131 4.8 4.8 0.00 0.00 0.00 81
20260507062416 13 142 3.2 4.8 0.00 0.00 0.00 81
20260507061909 13 128 3.2 4.8 0.00 0.00 0.00 81
20260507061407 13 127 3.2 4.8 0.00 0.00 0.00 81
20260507060905 13 137 3.2 3.2 0.00 0.00 0.00 81
20260507060401 13 131 4.8 4.8 0.00 0.00 0.00 82
20260507055858 13 135 3.2 3.2 0.00 0.00 0.00 82
20260507055353 13 127 1.6 1.6 0.00 0.00 0.00 82
20260507054850 13 134 1.6 1.6 0.00 0.00 0.00 82
20260507054346 13 128 1.6 1.6 0.00 0.00 0.00 83
20260507053843 13 118 3.2 3.2 0.00 0.00 0.00 83
20260507053341 13 133 3.2 3.2 0.00 0.00 0.00 82
20260507052840 13 130 1.6 1.6 0.00 0.00 0.00 82
20260507052336 13 136 1.6 3.2 0.00 0.00 0.00 82
20260507051834 13 129 1.6 3.2 0.00 0.00 0.00 82
20260507051331 13 143 1.6 3.2 0.00 0.00 0.00 82
20260507050828 13 131 1.6 3.2 0.00 0.00 0.00 81
20260507050324 13 133 3.2 4.8 0.00 0.00 0.00 81
20260507045821 13 125 1.6 1.6 0.00 0.00 0.00 81
20260507045318 13 132 3.2 4.8 0.00 0.00 0.00 80
20260507044815 13 143 3.2 3.2 0.00 0.00 0.00 80
20260507044311 13 150 4.8 4.8 0.00 0.00 0.00 79
20260507043808 14 128 3.2 3.2 0.00 0.00 0.00 79
20260507043304 14 134 1.6 3.2 0.00 0.00 0.00 79
20260507042801 14 132 3.2 3.2 0.00 0.00 0.00 79
20260507042256 14 135 3.2 3.2 0.00 0.00 0.00 79
20260507041754 15 136 1.6 1.6 0.00 0.00 0.00 79
20260507041250 15 127 1.6 1.6 0.00 0.00 0.00 78
20260507040747 15 132 0.0 1.6 0.00 0.00 0.00 78
20260507040243 15 144 1.6 3.2 0.00 0.00 0.00 78
20260507035739 15 137 0.0 0.0 0.00 0.00 0.00 78
20260507035234 15 133 0.0 0.0 0.00 0.00 0.00 77
20260507034732 15 137 0.0 0.0 0.00 0.00 0.00 77
20260507034229 15 134 0.0 0.0 0.00 0.00 0.00 77
20260507033728 15 131 0.0 1.6 0.00 0.00 0.00 77
20260507033225 15 129 0.0 0.0 0.00 0.00 0.00 76
20260507032722 15 131 0.0 0.0 0.00 0.00 0.00 76
20260507032218 15 130 0.0 1.6 0.00 0.00 0.00 75
20260507031715 15 132 0.0 1.6 0.00 0.00 0.00 74
20260507031211 16 147 1.6 1.6 0.00 0.00 0.00 74
20260507030708 16 130 0.0 1.6 0.00 0.00 0.00 73
20260507030206 16 133 0.0 0.0 0.00 0.00 0.00 72
20260507025703 17 130 3.2 3.2 0.00 0.00 0.00 71
20260507025200 17 131 0.0 0.0 0.00 0.00 0.00 70
20260507024658 17 122 0.0 0.0 0.00 0.00 0.00 70
20260507024155 17 127 0.0 0.0 0.00 0.00 0.00 68
20260507023650 18 133 0.0 0.0 0.00 0.00 0.00 68
20260507023148 18 146 1.6 1.6 0.00 0.00 0.00 67
20260507022645 18 131 1.6 1.6 0.00 0.00 0.00 67
20260507022140 18 123 1.6 1.6 0.00 0.00 0.00 66
20260507021637 18 109 1.6 1.6 0.00 0.00 0.00 65
20260507021132 18 229 3.2 3.2 0.00 0.00 0.00 65
20260507020631 19 109 1.6 1.6 0.00 0.00 0.00 65
20260507020127 19 288 4.8 6.4 0.00 0.00 0.00 65
20260507015625 19 21 3.2 3.2 0.00 0.00 0.00 64
20260507015122 19 137 0.0 1.6 0.00 0.00 0.00 64
20260507014619 19 84 1.6 3.2 0.00 0.00 0.00 63
20260507014115 19 126 1.6 1.6 0.00 0.00 0.00 64
20260507013612 19 133 3.2 4.8 0.00 0.00 0.00 63
20260507013109 19 257 3.2 3.2 0.00 0.00 0.00 64
20260507012606 19 26 4.8 4.8 0.00 0.00 0.00 64
20260507012101 20 298 6.4 11.3 0.00 0.00 0.00 64
20260507011600 20 306 8.0 9.7 0.00 0.00 0.00 64
20260507011055 20 136 1.6 1.6 0.00 0.00 0.00 63
20260507010550 20 346 4.8 6.4 0.00 0.00 0.00 62
20260507010047 20 168 6.4 6.4 0.00 0.00 0.00 62
20260507005544 20 288 8.0 9.7 0.00 0.00 0.00 63
20260507005040 20 316 1.6 3.2 0.00 0.00 0.00 62
20260507004538 20 114 6.4 6.4 0.00 0.00 0.00 62
20260507004035 20 345 6.4 6.4 0.00 0.00 0.00 63
20260507003531 20 74 6.4 9.7 0.00 0.00 0.00 62
20260507003026 20 247 6.4 6.4 0.00 0.00 0.00 62
20260507002522 20 140 0.0 0.0 0.00 0.00 0.00 60
20260507002019 20 294 6.4 9.7 0.00 0.00 0.00 60
20260507001515 20 158 3.2 3.2 0.00 0.00 0.00 61
20260507001013 20 103 3.2 3.2 0.00 0.00 0.00 59
20260507000509 20 46 8.0 11.3 0.00 0.00 0.00 59
20260507000005 20 35 9.7 12.9 0.00 0.00 0.00 60
20260506235502 20 224 8.0 9.7 0.00 0.00 0.00 59
20260506234957 20 132 0.0 1.6 0.00 0.00 0.00 59
20260506234455 20 125 3.2 4.8 0.00 0.00 0.00 60
20260506233952 20 20 4.8 6.4 0.00 0.00 0.00 59
20260506233449 20 127 0.0 1.6 0.00 0.00 0.00 59
20260506232945 20 90 3.2 4.8 0.00 0.00 0.00 59
20260506232442 20 352 11.3 14.5 0.00 0.00 0.00 59
20260506231937 20 40 1.6 3.2 0.00 0.00 0.00 60
20260506231436 20 51 6.4 11.3 0.00 0.00 0.00 60
20260506230932 20 251 6.4 9.7 0.00 0.00 0.00 59
20260506230428 20 166 6.4 11.3 0.00 0.00 0.00 61
20260506225925 20 334 6.4 6.4 0.00 0.00 0.00 61
20260506225423 20 21 6.4 6.4 0.00 0.00 0.00 61
20260506224920 20 155 1.6 1.6 0.00 0.00 0.00 60
20260506224417 20 140 1.6 1.6 0.00 0.00 0.00 61
20260506223913 20 101 6.4 6.4 0.00 0.00 0.00 60
20260506223408 20 338 6.4 11.3 0.00 0.00 0.00 62
20260506222906 20 70 9.7 12.9 0.00 0.00 0.00 60
20260506222402 20 301 11.3 16.1 0.00 0.00 0.00 61
20260506221859 20 264 6.4 11.3 0.00 0.00 0.00 61
20260506221356 20 294 6.4 9.7 0.00 0.00 0.00 61
20260506220854 20 168 8.0 11.3 0.00 0.00 0.00 61
20260506220349 20 295 9.7 16.1 0.00 0.00 0.00 61
20260506215846 20 138 3.2 4.8 0.00 0.00 0.00 60
20260506215342 21 200 3.2 6.4 0.00 0.00 0.00 58
20260506214838 21 357 3.2 3.2 0.00 0.00 0.00 59
20260506214335 21 33 6.4 9.7 0.00 0.00 0.00 59
20260506213833 21 352 6.4 9.7 0.00 0.00 0.00 59
20260506213330 21 225 12.9 14.5 0.00 0.00 0.00 58
20260506212828 21 154 3.2 6.4 0.00 0.00 0.00 57
20260506212323 20 274 6.4 11.3 0.00 0.00 0.00 58
20260506211818 20 111 3.2 4.8 0.00 0.00 0.00 59
20260506211315 20 337 6.4 11.3 0.00 0.00 0.00 57
20260506210813 20 267 8.0 14.5 0.00 0.00 0.00 57
20260506210309 20 283 8.0 12.9 0.00 0.00 0.00 58
20260506205806 20 264 6.4 9.7 0.00 0.00 0.00 57
20260506205305 20 112 3.2 3.2 0.00 0.00 0.00 58
20260506204759 20 72 8.0 11.3 0.00 0.00 0.00 59
20260506204257 20 340 8.0 9.7 0.00 0.00 0.00 59
20260506203754 20 185 4.8 6.4 0.00 0.00 0.00 59
20260506203251 20 320 4.8 4.8 0.00 0.00 0.00 59
20260506202748 20 303 6.4 12.9 0.00 0.00 0.00 58
20260506202245 20 298 8.0 11.3 0.00 0.00 0.00 59
20260506201741 21 323 12.9 16.1 0.00 0.00 0.00 59
20260506201238 21 259 6.4 9.7 0.00 0.00 0.00 59
20260506200735 21 272 9.7 12.9 0.00 0.00 0.00 59
20260506200232 21 308 14.5 16.1 0.00 0.00 0.00 57
20260506195728 21 31 3.2 4.8 0.00 0.00 0.00 58
20260506195225 21 12 14.5 22.5 0.00 0.00 0.00 58
20260506194722 21 320 4.8 9.7 0.00 0.00 0.00 58
20260506194218 21 338 3.2 6.4 0.00 0.00 0.00 58
20260506193716 21 227 11.3 12.9 0.00 0.00 0.00 58
20260506193213 21 121 1.6 1.6 0.00 0.00 0.00 58
20260506192709 21 63 6.4 6.4 0.00 0.00 0.00 58
20260506192206 21 326 12.9 17.7 0.00 0.00 0.00 57
20260506191657 20 342 4.8 6.4 0.00 0.00 0.00 57
20260506191153 20 149 0.0 1.6 0.00 0.00 0.00 58
20260506190650 20 283 6.4 6.4 0.00 0.00 0.00 57
20260506190147 20 134 0.0 0.0 0.00 0.00 0.00 57
20260506185644 20 313 4.8 6.4 0.00 0.00 0.00 58
20260506185140 20 328 3.2 4.8 0.00 0.00 0.00 57
20260506184638 20 302 1.6 1.6 0.00 0.00 0.00 58
20260506184135 20 324 1.6 4.8 0.00 0.00 0.00 57
20260506183632 19 233 1.6 3.2 0.00 0.00 0.00 59
20260506183127 19 31 6.4 11.3 0.00 0.00 0.00 58
20260506182625 18 352 4.8 4.8 0.00 0.00 0.00 58
20260506182122 18 127 0.0 0.0 0.00 0.00 0.00 58
20260506181620 18 14 1.6 3.2 0.00 0.00 0.00 58
20260506181117 18 139 3.2 3.2 0.00 0.00 0.00 57
20260506180614 18 37 1.6 3.2 0.00 0.00 0.00 57
20260506180110 17 108 0.0 0.0 0.00 0.00 0.00 59
20260506175606 17 137 0.0 0.0 0.00 0.00 0.00 60
20260506175102 17 232 6.4 6.4 0.00 0.00 0.00 60
20260506174602 17 343 3.2 4.8 0.00 0.00 0.00 61
20260506174057 17 133 0.0 0.0 0.00 0.00 0.00 63
20260506173555 17 301 1.6 1.6 0.00 0.00 0.00 62
20260506173052 17 304 3.2 4.8 0.00 0.00 0.00 64
20260506172549 17 130 0.0 0.0 0.00 0.00 0.00 64
20260506172045 16 317 1.6 3.2 0.00 0.00 0.00 63
20260506171543 16 4 6.4 9.7 0.00 0.00 0.00 64
20260506171041 16 293 8.0 11.3 0.00 0.00 0.00 63
20260506170538 16 136 3.2 3.2 0.00 0.00 0.00 64
20260506170035 16 272 3.2 4.8 0.00 0.00 0.00 64
20260506165534 16 121 4.8 6.4 0.00 0.00 0.00 64
20260506165030 16 123 0.0 0.0 0.00 0.00 0.00 64
20260506164527 16 34 0.0 1.6 0.00 0.00 0.00 64
20260506164024 15 133 0.0 1.6 0.00 0.00 0.00 66
20260506163520 15 66 1.6 3.2 0.00 0.00 0.00 67
20260506163016 15 37 1.6 3.2 0.00 0.00 0.00 68
20260506162512 15 297 1.6 3.2 0.00 0.00 0.00 68